Simultaneous Nadir Overpasses (SNOs) Predictions

Prediction of SNOs between AURA and NPP Satellite Orbit:

Table of predicted SNOs for the next 14.0 days since TLE Epoch: 6/22/2012
Index Date (AURA) Time (AURA) AURA Lat,Lon Date (NPP) Time (NPP) NPP Lat,Lon Distance(km) Time Diff (sec)
1 06/22/2012 12:14:38 -79.66, 74.12 06/22/2012 12:13:27 -79.67, 74.26 3.06 71
2 06/22/2012 13:04:00 79.81,-117.11 06/22/2012 13:04:07 79.80,-117.25 3.06 7
3 06/25/2012 04:31:07 -79.66,-169.96 06/25/2012 04:30:19 -79.66,-170.02 1.17 48
4 06/25/2012 05:20:27 79.88, -0.65 06/25/2012 05:20:56 79.88, -0.68 0.64 29
5 06/27/2012 20:47:35 -79.69, -53.86 06/27/2012 20:47:10 -79.69, -54.01 3.08 25
6 06/27/2012 21:36:55 79.91, 115.44 06/27/2012 21:37:47 79.90, 115.33 2.28 52
7 06/30/2012 13:04:00 -79.78, 62.69 06/30/2012 13:03:58 -79.77, 62.57 2.64 2
8 06/30/2012 13:52:39 81.19,-114.49 06/30/2012 13:53:52 80.98,-113.74 27.14 73
9 07/03/2012 04:31:03 79.71, 10.37 07/03/2012 04:30:06 79.71, 10.49 2.42 57
10 07/03/2012 05:20:26 -79.86, 179.16 07/03/2012 05:20:47 -79.86, 179.17 0.21 21
11 07/05/2012 20:47:30 79.74, 126.45 07/05/2012 20:46:57 79.74, 126.51 1.39 33




NCC Satellite Simultaneous Nadir Overpasses (SNOs) Prediction Service
